This is the latest recevied weather packets stored in our database for station/object K1TTC. If no packets are shown the sender has not sent any weather packets the latest 10 day(s).
| Time | Temp. | Humidity | Pressure | Rain* | Wind** | Luminosity | Snow |
|---|---|---|---|---|---|---|---|
| 1778097849 | 17.22° C | 70% | 1007.9 hPa | 0.51 mm | - | 65 W/m² | - |
| 1778097249 | 17.78° C | 69% | 1008.1 hPa | 0.51 mm | - | 40 W/m² | - |
| 1778096648 | 18.33° C | 68% | 1008 hPa | 0.51 mm | - | 56 W/m² | - |
| 1778096050 | 18.33° C | 66% | 1008 hPa | 0.25 mm | - | 74 W/m² | - |
| 1778095449 | 18.89° C | 65% | 1007.9 hPa | 0.25 mm | - | 72 W/m² | - |
| 1778094849 | 19.44° C | 62% | 1007.9 hPa | 0 mm | - | 81 W/m² | - |
| 1778094250 | 20° C | 60% | 1007.9 hPa | 0 mm | - | 84 W/m² | - |
| 1778093649 | 20.56° C | 57% | 1008 hPa | 0 mm | - | 93 W/m² | - |
| 1778093051 | 21.11° C | 55% | 1008.2 hPa | 0 mm | - | 79 W/m² | - |
| 1778092447 | 21.11° C | 54% | 1008.1 hPa | 0 mm | - | 121 W/m² | - |
| 1778091846 | 22.22° C | 51% | 1008 hPa | 0 mm | - | 116 W/m² | - |
| 1778091244 | 22.22° C | 48% | 1008 hPa | 0 mm | - | 105 W/m² | - |
| 1778090643 | 22.22° C | 48% | 1008.1 hPa | 0 mm | - | 116 W/m² | - |
| 1778090042 | 22.78° C | 47% | 1008.2 hPa | 0 mm | - | 97 W/m² | - |
| 1778089443 | 22.78° C | 47% | 1008.3 hPa | 0 mm | - | 90 W/m² | - |
| 1778088843 | 22.78° C | 48% | 1008.3 hPa | 0 mm | - | 171 W/m² | - |
| 1778088245 | 22.78° C | 47% | 1008.3 hPa | 0 mm | - | 121 W/m² | - |
| 1778087645 | 22.78° C | 48% | 1008.3 hPa | 0 mm | - | 348 W/m² | - |
| 1778087043 | 22.78° C | 49% | 1008.4 hPa | 0 mm | - | 287 W/m² | - |
| 1778086443 | 22.22° C | 49% | 1008.5 hPa | 0 mm | - | 323 W/m² | - |
| 1778085843 | 22.22° C | 50% | 1008.7 hPa | 0 mm | - | 236 W/m² | - |
| 1778085243 | 22.22° C | 50% | 1008.8 hPa | 0 mm | - | 195 W/m² | - |
| 1778084647 | 22.22° C | 50% | 1008.8 hPa | 0 mm | - | 193 W/m² | - |
| 1778084042 | 22.22° C | 49% | 1009.1 hPa | 0 mm | - | 257 W/m² | - |
| 1778083487 | 22.22° C | 50% | 1009.4 hPa | 0 mm | - | 223 W/m² | - |
* Rain latest hour (hover to see other rain measurements)
** Current wind speed in m/s (hover to see current wind gust speed)